Buffalo, NY

7:46 PM EDT on September 22, 2017 (GMT -0400)
Buffalo Niagara International

Weather History for KBUF - February, 2014

Change the Weather History Date:

Thursday, February 27, 2014

  Actual Average Record
Temperature  
Mean Temperature 9 °F 29 °F  
Max Temperature 16 °F 36 °F 64 °F (2000)
Min Temperature 2 °F 21 °F -4 °F (1934)
Degree Days  
Heating Degree Days 56 36  
Month to date heating degree days 1201 1048  
Since 1 July heating degree days 5048 4707  
Cooling Degree Days 0 0  
Month to date cooling degree days 0 0  
Year to date cooling degree days 0 0  
Moisture  
Dew Point 4 °F    
Average Humidity 71    
Maximum Humidity 92    
Minimum Humidity 49    
Precipitation  
Precipitation 0.15 in 0.09 in 0.87 in (1910)
Month to date precipitation 3.62 2.39  
Year to date precipitation 6.78 5.57  
Snow  
Snow 4.40 in 0.50 in 8.50 in (2002)
Month to date snowfall 23.3 16.7  
Since 1 July snowfall 104.2 78.2  
Snow Depth 1.00 in    
Sea Level Pressure  
Sea Level Pressure 29.67 in    
Wind  
Wind Speed 18 mph (WSW)    
Max Wind Speed 32 mph    
Max Gust Speed 43 mph    
Visibility 3 miles    
Events Fog , Snow    
T = Trace of Precipitation, MM = Missing Value Source: NWS Daily Summary

Daily Weather History Graph

Daily Weather History Graph

Search for Another Location

Airport or City:

Trip Planner

Search our weather history database for the weather conditions in past years. The results will help you decide how hot, cold, wet, or windy it might be!

Date:

Astronomy

Feb. 27, 2014 Rise Set
Actual Time 6:54 AM EST 6:01 PM EST
Civil Twilight 6:25 AM EST 6:30 PM EST
Nautical Twilight 5:52 AM EST 7:03 PM EST
Astronomical Twilight 5:19 AM EST 7:36 PM EST
Moon 5:27 AM EST (2/27) 4:23 PM EST (2/27)
Length of Visible Light 12h 04m
Length of Day
11h 07m
Waning Crescent, 4% of the Moon is Illuminated
Feb 27
Waning Crescent
Mar 1
New
Mar 8
First Quarter
Mar 16
Full
Mar 23
Last Quarter

Hourly Weather History & Observations

Time (EST) Temp. Windchill Dew Point Humidity Pressure Visibility Wind Dir Wind Speed Gust Speed Precip Events Conditions
12:54 AM 12.0 °F -2.0 °F -0.9 °F 56% 29.67 in 10.0 mi South 11.5 mph - N/A   Overcast
1:54 AM 14.0 °F -1.4 °F 1.0 °F 56% 29.64 in 10.0 mi SSW 15.0 mph 21.9 mph N/A   Overcast
2:54 AM 14.0 °F -3.4 °F 1.9 °F 59% 29.59 in 10.0 mi SSW 19.6 mph 26.5 mph N/A   Overcast
3:28 AM 14.0 °F -4.3 °F 5.0 °F 67% 29.53 in 4.0 mi SW 21.9 mph 28.8 mph 0.00 in Snow Light Snow
3:42 AM 14.0 °F -3.9 °F 6.8 °F 73% 29.53 in 2.0 mi SW 20.7 mph 28.8 mph 0.00 in Snow Light Snow
3:54 AM 14.0 °F -3.4 °F 7.0 °F 74% 29.57 in 2.5 mi SW 19.6 mph 26.5 mph 0.00 in Snow Light Snow
4:35 AM 14.0 °F -2.5 °F 8.6 °F 79% 29.51 in 1.5 mi SW 17.3 mph 31.1 mph 0.00 in Snow Light Snow
4:54 AM 14.0 °F -3.9 °F 10.0 °F 84% 29.56 in 1.5 mi SW 20.7 mph 27.6 mph 0.00 in Snow Light Snow
5:03 AM 14.0 °F -1.4 °F 10.4 °F 86% 29.51 in 0.8 mi WSW 15.0 mph 28.8 mph 0.00 in Snow Light Snow
5:11 AM 12.2 °F -5.3 °F 8.6 °F 85% 29.51 in 1.0 mi WSW 18.4 mph 28.8 mph 0.00 in Snow Light Snow
5:25 AM 12.2 °F -5.8 °F 6.8 °F 79% 29.51 in 2.5 mi WSW 19.6 mph 28.8 mph 0.01 in Snow Light Snow
5:32 AM 12.2 °F -3.1 °F 6.8 °F 79% 29.51 in 4.0 mi WSW 13.8 mph 28.8 mph 0.01 in Snow Light Snow
5:54 AM 12.9 °F -2.8 °F 6.1 °F 74% 29.55 in 9.0 mi WSW 15.0 mph 23.0 mph 0.01 in Snow Light Snow
6:45 AM 14.0 °F 0.5 °F 8.6 °F 79% 29.49 in 2.0 mi SW 11.5 mph - 0.00 in Snow Light Snow
6:49 AM 14.0 °F 0.5 °F 8.6 °F 79% 29.49 in 1.0 mi WSW 11.5 mph - 0.00 in Snow Light Snow
6:54 AM 14.0 °F 1.2 °F 9.0 °F 80% 29.53 in 0.8 mi SW 10.4 mph - 0.00 in Snow Light Snow
7:08 AM 12.2 °F -3.7 °F 8.6 °F 85% 29.49 in 0.5 mi West 15.0 mph - 0.00 in Fog , Snow Snow
7:26 AM 12.2 °F 0.7 °F 8.6 °F 85% 29.49 in 0.5 mi West 8.1 mph - 0.01 in Fog , Snow Snow
7:47 AM 12.2 °F -1.0 °F 10.4 °F 92% 29.50 in 0.2 mi WSW 10.4 mph - 0.03 in Fog , Snow Heavy Snow
7:49 AM 12.2 °F -0.2 °F 10.4 °F 92% 29.50 in 0.1 mi WSW 9.2 mph - 0.03 in Fog , Snow Heavy Snow
7:54 AM 12.9 °F 0.7 °F 10.0 °F 88% 29.54 in 0.1 mi WSW 9.2 mph - 0.04 in Fog , Snow Heavy Snow
8:32 AM 14.0 °F -0.2 °F 10.4 °F 86% 29.49 in 0.1 mi SW 12.7 mph 19.6 mph 0.07 in Fog , Snow Heavy Snow
8:49 AM 14.0 °F -2.0 °F 10.4 °F 86% 29.49 in 0.1 mi SW 16.1 mph 21.9 mph 0.08 in Fog , Snow Heavy Snow
8:50 AM 14.0 °F -2.0 °F 10.9 °F 88% 29.54 in 0.1 mi WSW 16.1 mph 21.9 mph 0.08 in Fog , Snow Heavy Snow
8:54 AM 14.0 °F -2.0 °F 10.9 °F 88% 29.54 in 0.1 mi WSW 16.1 mph 21.9 mph 0.08 in Fog , Snow Heavy Snow
8:58 AM 14.0 °F -2.5 °F 10.4 °F 86% 29.50 in 0.5 mi WSW 17.3 mph 21.9 mph 0.00 in Fog , Snow Snow
9:14 AM 15.8 °F -0.6 °F 10.4 °F 79% 29.49 in 0.5 mi WSW 18.4 mph 24.2 mph 0.00 in Snow Snow
9:30 AM 14.0 °F -2.0 °F 8.6 °F 79% 29.49 in 1.5 mi WSW 16.1 mph 21.9 mph 0.00 in Snow Light Snow
9:36 AM 14.0 °F -1.4 °F 8.6 °F 79% 29.50 in 0.5 mi West 15.0 mph 21.9 mph 0.00 in Snow Snow
9:54 AM 15.1 °F -1.1 °F 9.0 °F 77% 29.55 in 1.0 mi WSW 17.3 mph 24.2 mph 0.01 in Snow Light Snow
10:01 AM 14.0 °F -0.8 °F 6.8 °F 73% 29.50 in 5.0 mi WSW 13.8 mph 24.2 mph 0.00 in Snow Light Snow
10:27 AM 15.8 °F 1.4 °F 8.6 °F 73% 29.51 in 2.0 mi WSW 13.8 mph 21.9 mph 0.01 in Snow Light Snow
10:34 AM 15.8 °F -0.6 °F 8.6 °F 73% 29.52 in 1.0 mi West 18.4 mph 24.2 mph 0.01 in Snow Light Snow
10:40 AM 15.8 °F 2.1 °F 10.4 °F 79% 29.52 in 0.5 mi West 12.7 mph 24.2 mph 0.01 in Snow Snow
10:54 AM 15.1 °F -0.1 °F 8.1 °F 74% 29.58 in 2.5 mi West 15.0 mph - 0.01 in Snow Light Snow
11:16 AM 15.8 °F 0.9 °F 8.6 °F 73% 29.55 in 1.5 mi West 15.0 mph 24.2 mph 0.00 in Snow Light Snow
11:29 AM 15.8 °F 1.4 °F 8.6 °F 73% 29.55 in 2.5 mi West 13.8 mph 21.9 mph 0.00 in Snow Light Snow
11:54 AM 16.0 °F -0.4 °F 8.1 °F 71% 29.61 in 2.5 mi West 18.4 mph 27.6 mph 0.00 in Snow Light Snow
11:59 AM 15.8 °F -1.1 °F 6.8 °F 68% 29.58 in 0.2 mi WNW 19.6 mph 32.2 mph 0.00 in Snow Heavy Snow
12:01 PM 14.0 °F -4.3 °F 8.6 °F 79% 29.59 in 0.1 mi WNW 21.9 mph 32.2 mph 0.00 in Snow Heavy Snow
12:09 PM 12.2 °F -7.9 °F 6.8 °F 79% 29.61 in 0.1 mi NW 25.3 mph 34.5 mph 0.00 in Snow Heavy Snow
12:11 PM 12.2 °F -5.8 °F 6.8 °F 79% 29.61 in 0.1 mi NW 19.6 mph 34.5 mph 0.00 in Snow Heavy Snow
12:40 PM 10.4 °F -10.3 °F 3.2 °F 73% 29.64 in 0.5 mi NW 25.3 mph 34.5 mph 0.00 in Snow Snow
12:54 PM 10.9 °F -9.2 °F 1.9 °F 67% 29.70 in 2.0 mi WNW 24.2 mph 35.7 mph 0.00 in Snow Light Snow
1:00 PM 10.4 °F -9.1 °F 1.4 °F 67% 29.66 in 1.0 mi WNW 21.9 mph 33.4 mph 0.00 in Snow Light Snow
1:26 PM 10.4 °F -10.3 °F -2.2 °F 57% 29.69 in 2.5 mi West 25.3 mph 36.8 mph 0.00 in Snow Light Snow
1:54 PM 10.9 °F -7.9 °F -2.9 °F 54% 29.77 in 2.0 mi West 20.7 mph 36.8 mph 0.00 in Snow Light Snow
2:54 PM 8.1 °F -13.0 °F -6.0 °F 53% 29.83 in 1.5 mi West 24.2 mph 38.0 mph 0.00 in Snow Light Snow
3:17 PM 8.6 °F -11.9 °F -5.8 °F 52% 29.80 in 0.8 mi West 23.0 mph 39.1 mph 0.00 in Snow Light Snow
3:41 PM 6.8 °F -13.8 °F -7.6 °F 52% 29.83 in 2.0 mi West 21.9 mph 32.2 mph 0.00 in Snow Light Snow
3:54 PM 7.0 °F -15.6 °F -8.0 °F 51% 29.89 in 2.0 mi West 27.6 mph 36.8 mph 0.00 in Snow Blowing Snow
4:54 PM 7.0 °F -15.6 °F -8.0 °F 51% 29.94 in 2.0 mi West 27.6 mph 39.1 mph N/A Snow Blowing Snow
5:14 PM 6.8 °F -14.3 °F -7.6 °F 52% 29.91 in 3.0 mi West 23.0 mph 34.5 mph N/A Snow Blowing Snow
5:54 PM 6.1 °F -15.7 °F -9.0 °F 50% 29.99 in 3.0 mi West 24.2 mph 34.5 mph N/A Snow Blowing Snow
6:54 PM 5.0 °F -16.2 °F -6.0 °F 61% 30.05 in 10.0 mi West 21.9 mph 26.5 mph N/A   Scattered Clouds
7:05 PM 5.0 °F -13.6 °F -4.0 °F 66% 30.01 in 9.0 mi West 16.1 mph - 0.00 in Snow Light Snow
7:29 PM 5.0 °F -13.0 °F -4.0 °F 66% 30.01 in 8.0 mi WSW 15.0 mph 21.9 mph 0.00 in Snow Light Snow
7:54 PM 5.0 °F -13.6 °F -4.0 °F 66% 30.08 in 10.0 mi West 16.1 mph 23.0 mph 0.00 in   Scattered Clouds
8:54 PM 5.0 °F -14.2 °F -8.0 °F 55% 30.11 in 10.0 mi West 17.3 mph 26.5 mph 0.00 in   Scattered Clouds
9:54 PM 3.9 °F -11.3 °F -7.1 °F 60% 30.14 in 10.0 mi West 10.4 mph - 0.00 in   Scattered Clouds
10:54 PM 3.9 °F -12.2 °F -6.0 °F 64% 30.17 in 8.0 mi West 11.5 mph 24.2 mph 0.00 in Snow Light Snow
11:54 PM 3.0 °F -11.5 °F -7.1 °F 63% 30.18 in 10.0 mi West 9.2 mph - 0.00 in   Scattered Clouds